Location: Puerto Pe�asco
(31.3170°N, 113.5330°W)
Time: 15:36:44
(UTC-07:00)

Hubble Space Telescope - Visible Passes

Search period start: 18 January 2019 00:00
Search period end: 28 January 2019 00:00
Orbit: 537 x 540 km, 28.5° (Epoch: 18 January)

Date Brightness Start Highest point End Pass type
(mag) Time Alt. Az. Time Alt. Az. Time Alt. Az.
18 Jan 2.7 05:13:07 26° SE 05:13:07 26° SE 05:15:34 10° E visible
18 Jan 1.3 06:48:48 10° WSW 06:52:51 56° S 06:56:55 10° E visible
19 Jan 3.1 05:03:27 22° ESE 05:03:27 22° ESE 05:05:13 10° E visible
19 Jan 1.2 06:38:48 13° WSW 06:42:23 58° S 06:46:28 10° E visible
20 Jan 3.5 04:53:42 17° ESE 04:53:42 17° ESE 04:54:50 10° E visible
20 Jan 1.1 06:29:03 18° WSW 06:31:56 58° S 06:36:01 10° ESE visible
21 Jan 3.9 04:43:55 13° E 04:43:55 13° E 04:44:25 10° E visible
21 Jan 1.1 06:19:15 25° WSW 06:21:28 57° S 06:25:32 10° ESE visible
22 Jan 1.1 06:09:26 33° WSW 06:11:00 54° S 06:15:03 10° ESE visible
23 Jan 1.2 05:59:35 41° SW 06:00:33 50° S 06:04:34 10° ESE visible
24 Jan 1.3 05:49:45 44° SSW 05:50:04 45° S 05:54:02 10° ESE visible
25 Jan 1.6 05:39:55 39° S 05:39:55 39° S 05:43:29 10° ESE visible
26 Jan 2.2 05:30:06 30° SSE 05:30:06 30° SSE 05:32:52 10° SE visible
27 Jan 2.8 05:20:19 22° SSE 05:20:19 22° SSE 05:22:13 10° SE visible
